TimeEST,TemperatureF,Dew PointF,Humidity,Sea Level PressureIn,VisibilityMPH,Wind Direction,Wind SpeedMPH,Gust SpeedMPH,PrecipitationIn,Events,Conditions,WindDirDegrees,DateUTC
12:15 AM,34.3,24.6,68,30.03,10.0,Calm,Calm,-,N/A,,Clear,0,2013-02-25 05:15:00
12:35 AM,32.4,24.6,73,30.02,10.0,Calm,Calm,-,N/A,,Clear,0,2013-02-25 05:35:00
12:55 AM,32.4,24.4,73,30.03,10.0,Calm,Calm,-,N/A,,Clear,0,2013-02-25 05:55:00
1:15 AM,32.0,24.4,74,30.03,10.0,Calm,Calm,-,N/A,,Clear,0,2013-02-25 06:15:00
1:35 AM,31.3,24.4,76,30.03,10.0,Calm,Calm,-,N/A,,Clear,0,2013-02-25 06:35:00
2:15 AM,30.7,23.9,76,30.04,10.0,East,3.5,-,N/A,,Clear,100,2013-02-25 07:15:00
2:35 AM,30.9,23.9,75,30.04,10.0,East,3.5,-,N/A,,Clear,100,2013-02-25 07:35:00
2:55 AM,30.4,23.7,76,30.03,10.0,East,4.6,-,N/A,,Clear,90,2013-02-25 07:55:00
3:15 AM,30.2,24.3,79,30.03,10.0,East,6.9,-,N/A,,Clear,100,2013-02-25 08:15:00
3:35 AM,33.3,23.5,68,30.02,10.0,East,5.8,-,N/A,,Clear,80,2013-02-25 08:35:00
3:55 AM,31.5,24.3,75,30.04,10.0,East,3.5,-,N/A,,Clear,80,2013-02-25 08:55:00
4:15 AM,31.8,24.1,73,30.03,10.0,East,5.8,-,N/A,,Clear,100,2013-02-25 09:15:00
4:35 AM,31.6,24.4,75,30.02,10.0,East,6.9,-,N/A,,Clear,100,2013-02-25 09:35:00
4:55 AM,31.1,24.6,77,30.03,10.0,ESE,6.9,-,N/A,,Clear,110,2013-02-25 09:55:00
5:15 AM,32.0,24.3,73,30.03,10.0,East,4.6,-,N/A,,Clear,90,2013-02-25 10:15:00
5:35 AM,33.8,23.9,67,30.02,10.0,East,5.8,-,N/A,,Clear,80,2013-02-25 10:35:00
5:55 AM,34.3,23.9,66,30.03,10.0,ESE,4.6,-,N/A,,Clear,120,2013-02-25 10:55:00
6:15 AM,32.9,24.3,71,30.03,10.0,East,4.6,-,N/A,,Clear,80,2013-02-25 11:15:00
6:35 AM,34.0,24.1,67,30.02,10.0,ENE,6.9,-,N/A,,Clear,70,2013-02-25 11:35:00
6:55 AM,32.9,24.8,72,30.03,10.0,East,5.8,-,N/A,,Clear,100,2013-02-25 11:55:00
7:15 AM,33.8,24.3,68,30.03,10.0,East,6.9,-,N/A,,Clear,80,2013-02-25 12:15:00
7:35 AM,34.2,24.6,68,30.03,10.0,East,8.1,-,N/A,,Unknown,80,2013-02-25 12:35:00
7:55 AM,33.8,25.2,71,30.04,10.0,East,8.1,-,N/A,,Clear,80,2013-02-25 12:55:00
8:15 AM,34.7,24.6,67,30.05,10.0,East,9.2,-,N/A,,Clear,80,2013-02-25 13:15:00
8:35 AM,35.4,25.0,66,30.06,10.0,East,10.4,-,N/A,,Clear,90,2013-02-25 13:35:00
8:55 AM,36.0,25.7,66,30.06,10.0,East,10.4,-,N/A,,Clear,90,2013-02-25 13:55:00
9:15 AM,36.5,26.1,66,30.05,10.0,East,12.7,-,N/A,,Clear,90,2013-02-25 14:15:00
9:35 AM,37.0,25.7,64,30.06,10.0,East,12.7,-,N/A,,Clear,80,2013-02-25 14:35:00
10:15 AM,39.0,27.0,62,30.05,10.0,East,10.4,-,N/A,,Clear,90,2013-02-25 15:15:00
10:35 AM,39.6,26.8,60,30.05,10.0,East,12.7,-,N/A,,Clear,100,2013-02-25 15:35:00
10:55 AM,40.8,27.5,59,30.05,10.0,East,11.5,-,N/A,,Clear,80,2013-02-25 15:55:00
11:15 AM,41.5,27.5,57,30.05,10.0,East,10.4,-,N/A,,Clear,80,2013-02-25 16:15:00
11:35 AM,42.8,27.7,55,30.05,10.0,East,13.8,-,N/A,,Clear,100,2013-02-25 16:35:00
11:55 AM,43.3,27.7,54,30.05,10.0,East,12.7,-,N/A,,Clear,100,2013-02-25 16:55:00
12:15 PM,44.1,27.9,53,30.04,10.0,East,11.5,-,N/A,,Clear,90,2013-02-25 17:15:00
12:35 PM,44.4,28.0,53,30.03,10.0,East,11.5,-,N/A,,Clear,90,2013-02-25 17:35:00
12:55 PM,45.1,28.2,52,30.02,10.0,ESE,12.7,-,N/A,,Clear,110,2013-02-25 17:55:00
1:15 PM,45.7,28.9,52,30.02,10.0,East,10.4,-,N/A,,Clear,80,2013-02-25 18:15:00
1:35 PM,46.4,28.8,50,30.01,10.0,ESE,11.5,-,N/A,,Clear,110,2013-02-25 18:35:00
1:55 PM,46.9,29.3,50,29.99,10.0,East,11.5,-,N/A,,Clear,100,2013-02-25 18:55:00
2:35 PM,48.2,29.3,48,30.00,10.0,East,9.2,-,N/A,,Clear,90,2013-02-25 19:35:00
2:55 PM,51.3,30.9,46,29.99,10.0,ESE,8.1,-,N/A,,Clear,110,2013-02-25 19:55:00
3:15 PM,51.8,30.2,44,29.98,10.0,ESE,8.1,-,N/A,,Clear,120,2013-02-25 20:15:00
3:35 PM,52.3,30.4,43,29.99,10.0,ESE,5.8,-,N/A,,Clear,110,2013-02-25 20:35:00
3:55 PM,52.9,30.7,43,29.98,10.0,East,5.8,-,N/A,,Clear,90,2013-02-25 20:55:00
4:15 PM,53.2,30.4,42,29.97,10.0,East,3.5,-,N/A,,Clear,100,2013-02-25 21:15:00
4:35 PM,53.6,30.7,42,29.96,10.0,East,3.5,-,N/A,,Clear,80,2013-02-25 21:35:00
4:55 PM,53.4,30.7,42,29.96,10.0,East,6.9,-,N/A,,Clear,90,2013-02-25 21:55:00
5:15 PM,53.6,31.5,43,29.96,10.0,East,8.1,-,N/A,,Clear,100,2013-02-25 22:15:00
5:35 PM,52.7,31.6,45,29.96,10.0,East,9.2,-,N/A,,Clear,90,2013-02-25 22:35:00
5:55 PM,51.3,32.0,48,29.96,10.0,East,10.4,-,N/A,,Clear,100,2013-02-25 22:55:00
6:15 PM,50.0,31.3,49,29.95,10.0,East,10.4,-,N/A,,Clear,100,2013-02-25 23:15:00
6:35 PM,47.1,31.1,54,29.95,10.0,East,9.2,-,N/A,,Clear,90,2013-02-25 23:35:00
6:55 PM,46.4,30.9,55,29.95,10.0,East,11.5,-,N/A,,Clear,100,2013-02-25 23:55:00
7:15 PM,46.4,30.7,54,29.95,10.0,East,13.8,-,N/A,,Clear,100,2013-02-26 00:15:00
7:35 PM,45.5,30.2,55,29.94,10.0,East,15.0,-,N/A,,Clear,90,2013-02-26 00:35:00
7:55 PM,44.2,30.0,57,29.94,10.0,East,18.4,21.9,N/A,,Clear,100,2013-02-26 00:55:00
8:15 PM,43.0,29.7,59,29.95,10.0,East,17.3,21.9,N/A,,Clear,100,2013-02-26 01:15:00
8:35 PM,42.3,29.1,60,29.94,10.0,East,16.1,20.7,N/A,,Clear,90,2013-02-26 01:35:00
8:55 PM,41.5,28.8,60,29.94,10.0,East,16.1,23.0,N/A,,Clear,90,2013-02-26 01:55:00
9:15 PM,41.0,28.8,62,29.95,10.0,East,15.0,21.9,N/A,,Clear,90,2013-02-26 02:15:00
9:35 PM,40.5,28.4,62,29.94,10.0,East,18.4,21.9,N/A,,Clear,90,2013-02-26 02:35:00
9:55 PM,40.5,28.6,63,29.95,10.0,East,16.1,23.0,N/A,,Scattered Clouds,90,2013-02-26 02:55:00
10:15 PM,40.3,28.9,64,29.95,10.0,East,16.1,19.6,N/A,,Scattered Clouds,90,2013-02-26 03:15:00
10:35 PM,40.1,29.1,65,29.95,10.0,East,15.0,-,N/A,,Scattered Clouds,100,2013-02-26 03:35:00
10:55 PM,40.1,29.3,65,29.94,10.0,East,15.0,23.0,N/A,,Mostly Cloudy,90,2013-02-26 03:55:00
11:15 PM,40.5,30.0,66,29.94,10.0,East,13.8,-,N/A,,Mostly Cloudy,80,2013-02-26 04:15:00
11:35 PM,40.8,30.4,66,29.93,10.0,ENE,10.4,-,N/A,,Mostly Cloudy,70,2013-02-26 04:35:00
11:55 PM,41.0,30.0,65,29.94,10.0,ENE,13.8,19.6,N/A,,Mostly Cloudy,70,2013-02-26 04:55:00